QPF
0.07 0.06 0.06 0.05 0.06 0.07 0.07 0.07 0.06 0.05 0.05 0.05 0.06 0.04 0.05 0.07 0.09 0.10 0.10 0.08 0.07 0.05 0.04 0.04 0.04 0.03 0.03 0.03 0.03 0.03 0.03 0.03 0.03 0.03 0.04 0.04 0.05 0.06
0.04 0.05 0.07 0.07 0.07 0.07 0.06 0.07 0.07 0.06 0.06 0.05 0.04 0.05 0.05 0.06 0.09 0.07 0.05 0.04 0.04 0.04 0.04 0.04 0.03 0.03 0.02 0.02 0.02 0.02 0.02 0.02 0.02 0.03 0.03 0.03 0.03 0.03
0.04 0.05 0.06 0.08 0.09 0.08 0.07 0.05 0.06 0.07 0.07 0.06 0.07 0.05 0.04 0.04 0.06 0.05 0.04 0.03 0.03 0.04 0.03 0.03 0.03 0.02 0.01 0.01 0.01 0.01 0.01 0.01 0.02 0.02 0.03 0.03 0.02 0.03
0.05 0.05 0.06 0.06 0.07 0.09 0.08 0.06 0.05 0.06 0.07 0.06 0.06 0.04 0.03 0.03 0.04 0.04 0.05 0.05 0.05 0.05 0.05 0.04 0.04 0.03 0.02 0.02 0.03 0.02 0.02 0.02 0.02 0.02 0.02 0.02 0.02 0.02
0.06 0.05 0.05 0.06 0.07 0.08 0.08 0.07 0.06 0.06 0.06 0.07 0.08 0.07 0.06 0.07 0.07 0.07 0.07 0.07 0.08 0.08 0.08 0.06 0.05 0.04 0.04 0.03 0.03 0.02 0.02 0.02 0.02 0.02 0.02 0.02 0.02 0.01
0.05 0.06 0.06 0.06 0.07 0.07 0.06 0.07 0.08 0.09 0.09 0.09 0.08 0.07 0.08 0.08 0.08 0.10 0.10 0.09 0.10 0.09 0.08 0.06 0.04 0.03 0.03 0.03 0.03 0.03 0.03 0.02 0.02 0.02 0.01 0.01 0.01 0.01
0.04 0.05 0.05 0.06 0.07 0.07 0.07 0.08 0.09 0.10 0.09 0.09 0.09 0.09 0.09 0.10 0.11 0.13 0.12 0.10 0.10 0.10 0.08 0.05 0.04 0.02 0.03 0.03 0.03 0.03 0.03 0.03 0.02 0.02 0.02 0.01 0.01 0.01
0.03 0.03 0.03 0.05 0.06 0.08 0.10 0.09 0.08 0.08 0.06 0.06 0.06 0.07 0.08 0.10 0.16 0.16 0.13 0.11 0.10 0.08 0.09 0.08 0.07 0.05 0.04 0.05 0.04 0.03 0.02 0.02 0.02 0.02 0.02 0.01 0.01 0.01
0.03 0.03 0.03 0.03 0.02 0.02 0.03 0.03 0.04 0.05 0.05 0.04 0.06 0.09 0.11 0.11 0.12 0.11 0.10 0.09 0.09 0.09 0.09 0.10 0.10 0.08 0.06 0.05 0.05 0.03 0.03 0.02 0.02 0.02 0.01 0.01 0.01 0.01
0.03 0.03 0.03 0.02 0.02 0.01 0.01 0.01 0.02 0.03 0.03 0.03 0.04 0.05 0.06 0.06 0.05 0.06 0.07 0.08 0.07 0.06 0.06 0.06 0.06 0.05 0.04 0.03 0.03 0.03 0.03 0.02 0.02 0.01 0.01 0.01 0.01 0.02
0.02 0.03 0.03 0.03 0.03 0.02 0.02 0.01 0.01 0.01 0.02 0.03 0.03 0.03 0.03 0.03 0.03 0.03 0.04 0.04 0.04 0.03 0.03 0.03 0.03 0.02 0.02 0.02 0.02 0.02 0.02 0.01 0.01 0.01 0.01 0.01 0.01 0.01
0.04 0.04 0.04 0.04 0.04 0.03 0.03 0.02 0.01 0.01 0.01 0.01 0.01 0.01 0.01 0.01 0.01 0.01 0.01 0.02 0.02 0.02 0.02 0.02 0.03 0.03 0.02 0.01 0.01 0.01 0.01 0.01 0.01 0.01 0.01 0.00 0.00 0.01
0.03 0.03 0.03 0.04 0.04 0.04 0.03 0.02 0.02 0.01 0.01 0.01 0.01 0.01 0.01 0.01 0.01 0.01 0.01 0.01 0.01 0.01 0.01 0.02 0.02 0.02 0.02 0.01 0.01 0.02 0.02 0.02 0.02 0.02 0.01 0.01 0.00 0.00
0.01 0.01 0.01 0.02 0.03 0.03 0.02 0.01 0.02 0.01 0.01 0.01 0.01 0.01 0.01 0.01 0.01 0.01 0.01 0.01 0.01 0.01 0.01 0.01 0.01 0.01 0.01 0.01 0.01 0.01 0.01 0.01 0.02 0.02 0.02 0.02 0.01 0.01
0.01 0.01 0.00 0.01 0.01 0.01 0.01 0.01 0.01 0.00 0.00 0.00 0.00 0.00 0.00 0.01 0.01 0.01 0.01 0.01 0.01 0.01 0.01 0.01 0.01 0.01 0.01 0.01 0.01 0.01 0.01 0.01 0.01 0.01 0.01 0.02 0.02 0.01
0.01 0.00 0.00 0.00 0.01 0.00 0.00 0.00 0.00 0.00 0.00 0.00 0.00 0.01 0.01 0.01 0.01 0.01 0.01 0.00 0.00 0.00 0.01 0.01 0.01 0.01 0.01 0.01 0.01 0.01 0.01 0.01 0.01 0.01 0.00 0.01 0.01 0.01
0.00 0.00 0.00 0.00 0.00 0.00 0.00 0.00 0.00 0.00 0.00 0.00 0.01 0.01 0.01 0.01 0.01 0.00 0.00 0.00 0.01 0.01 0.01 0.01 0.00 0.00 0.00 0.00 0.01 0.01 0.01 0.01 0.01 0.02 0.01 0.01 0.01 0.01
0.00 0.00 0.00 0.00 0.00 0.00 0.00 0.00 0.00 0.00 0.00 0.01 0.01 0.01 0.00 0.00 0.00 0.00 0.00 0.00 0.00 0.00 0.00 0.01 0.00 0.00 0.00 0.00 0.01 0.01 0.02 0.02 0.03 0.03 0.03 0.03 0.03 0.02
0.00 0.00 0.00 0.00 0.00 0.00 0.00 0.00 0.00 0.00 0.00 0.00 0.01 0.01 0.00 0.00 0.00 0.00 0.00 0.00 0.00 0.00 0.00 0.00 0.00 0.00 0.01 0.01 0.01 0.02 0.02 0.02 0.02 0.03 0.03 0.03 0.04 0.04
0.00 0.00 0.00 0.00 0.00 0.00 0.00 0.00 0.00 0.00 0.00 0.01 0.01 0.00 0.00 0.00 0.00 0.00 0.00 0.00 0.00 0.00 0.00 0.00 0.00 0.01 0.01 0.01 0.01 0.02 0.02 0.02 0.03 0.03 0.03 0.04 0.05 0.05
0.01 0.00 0.00 0.00 0.00 0.00 0.00 0.00 0.01 0.01 0.01 0.00 0.00 0.00 0.00 0.00 0.00 0.00 0.00 0.00 0.00 0.00 0.00 0.00 0.00 0.00 0.01 0.01 0.01 0.02 0.02 0.02 0.04 0.05 0.04 0.05 0.04 0.04
0.01 0.01 0.01 0.01 0.01 0.01 0.00 0.01 0.00 0.01 0.01 0.01 0.00 0.00 0.00 0.00 0.00 0.00 0.00 0.00 0.00 0.00 0.00 0.00 0.00 0.00 0.01 0.01 0.02 0.03 0.03 0.02 0.03 0.04 0.04 0.05 0.05 0.04
0.02 0.01 0.01 0.00 0.00 0.00 0.00 0.01 0.01 0.01 0.01 0.01 0.01 0.01 0.01 0.00 0.00 0.00 0.00 0.00 0.00 0.00 0.00 0.00 0.00 0.01 0.01 0.01 0.02 0.02 0.03 0.04 0.03 0.03 0.03 0.04 0.04 0.04
MSLP
1018.56 1018.33 1018.18 1018.13 1018.19 1018.39 1018.71 1019.16 1019.70 1020.31 1020.96 1021.58 1022.12 1022.54 1022.80 1022.87 1022.77 1022.53 1022.18 1021.80 1021.44 1021.15 1020.97 1020.88 1020.88 1020.92 1020.96 1020.95 1020.86 1020.67 1020.41 1020.08 1019.72 1019.37 1019.05 1018.74 1018.44 1018.12
1019.02 1018.74 1018.52 1018.39 1018.36 1018.48 1018.74 1019.14 1019.67 1020.31 1021.00 1021.70 1022.35 1022.88 1023.26 1023.46 1023.48 1023.34 1023.09 1022.79 1022.49 1022.24 1022.08 1022.00 1021.99 1022.02 1022.03 1021.98 1021.86 1021.65 1021.36 1021.01 1020.65 1020.29 1019.96 1019.66 1019.35 1019.02
1019.56 1019.26 1018.99 1018.79 1018.69 1018.72 1018.91 1019.25 1019.75 1020.38 1021.10 1021.85 1022.56 1023.18 1023.66 1023.97 1024.09 1024.06 1023.91 1023.68 1023.45 1023.25 1023.12 1023.05 1023.04 1023.04 1023.03 1022.96 1022.80 1022.57 1022.26 1021.90 1021.53 1021.18 1020.86 1020.57 1020.29 1019.97
1020.17 1019.87 1019.59 1019.35 1019.19 1019.17 1019.29 1019.57 1020.02 1020.62 1021.32 1022.07 1022.82 1023.49 1024.03 1024.42 1024.63 1024.68 1024.62 1024.47 1024.31 1024.16 1024.06 1024.00 1023.99 1023.98 1023.94 1023.85 1023.67 1023.42 1023.09 1022.73 1022.37 1022.02 1021.72 1021.45 1021.20 1020.91
1020.83 1020.56 1020.29 1020.05 1019.87 1019.80 1019.87 1020.10 1020.49 1021.03 1021.68 1022.40 1023.13 1023.80 1024.37 1024.80 1025.06 1025.19 1025.19 1025.12 1025.02 1024.93 1024.86 1024.83 1024.83 1024.82 1024.77 1024.66 1024.46 1024.19 1023.86 1023.50 1023.14 1022.80 1022.52 1022.27 1022.05 1021.81
1021.49 1021.28 1021.05 1020.83 1020.66 1020.58 1020.61 1020.79 1021.11 1021.57 1022.15 1022.80 1023.46 1024.10 1024.64 1025.07 1025.36 1025.53 1025.59 1025.59 1025.55 1025.51 1025.50 1025.51 1025.52 1025.52 1025.48 1025.36 1025.16 1024.89 1024.55 1024.19 1023.83 1023.51 1023.23 1023.01 1022.81 1022.61
1022.10 1021.95 1021.79 1021.62 1021.48 1021.41 1021.42 1021.55 1021.80 1022.17 1022.64 1023.19 1023.76 1024.31 1024.79 1025.19 1025.48 1025.67 1025.77 1025.82 1025.85 1025.88 1025.92 1025.98 1026.03 1026.06 1026.03 1025.93 1025.74 1025.47 1025.15 1024.79 1024.44 1024.12 1023.85 1023.64 1023.46 1023.29
1022.62 1022.55 1022.45 1022.35 1022.25 1022.20 1022.20 1022.28 1022.46 1022.73 1023.09 1023.51 1023.96 1024.40 1024.80 1025.14 1025.40 1025.59 1025.72 1025.82 1025.91 1026.00 1026.11 1026.23 1026.33 1026.40 1026.40 1026.33 1026.17 1025.92 1025.61 1025.27 1024.93 1024.62 1024.36 1024.15 1023.99 1023.84
1023.01 1023.01 1022.98 1022.95 1022.90 1022.87 1022.87 1022.92 1023.02 1023.20 1023.44 1023.73 1024.04 1024.36 1024.66 1024.92 1025.14 1025.32 1025.47 1025.60 1025.74 1025.90 1026.07 1026.25 1026.41 1026.53 1026.58 1026.54 1026.42 1026.20 1025.92 1025.61 1025.29 1024.99 1024.74 1024.55 1024.39 1024.26
1023.27 1023.33 1023.37 1023.39 1023.40 1023.39 1023.39 1023.41 1023.46 1023.54 1023.67 1023.84 1024.03 1024.23 1024.42 1024.60 1024.77 1024.92 1025.08 1025.24 1025.42 1025.63 1025.85 1026.08 1026.29 1026.46 1026.56 1026.57 1026.49 1026.32 1026.08 1025.80 1025.51 1025.24 1025.00 1024.82 1024.67 1024.56
1023.41 1023.51 1023.61 1023.68 1023.73 1023.76 1023.76 1023.76 1023.77 1023.78 1023.82 1023.89 1023.97 1024.07 1024.17 1024.28 1024.40 1024.52 1024.67 1024.83 1025.04 1025.28 1025.54 1025.80 1026.05 1026.26 1026.40 1026.45 1026.41 1026.28 1026.09 1025.85 1025.59 1025.35 1025.15 1024.98 1024.85 1024.74
1023.44 1023.58 1023.73 1023.85 1023.94 1023.99 1024.01 1024.00 1023.98 1023.96 1023.94 1023.93 1023.94 1023.96 1024.00 1024.05 1024.12 1024.21 1024.34 1024.50 1024.71 1024.95 1025.22 1025.50 1025.77 1026.00 1026.16 1026.24 1026.23 1026.14 1025.99 1025.79 1025.57 1025.37 1025.19 1025.04 1024.93 1024.84
1023.40 1023.58 1023.76 1023.91 1024.04 1024.12 1024.16 1024.17 1024.15 1024.11 1024.06 1024.02 1023.99 1023.97 1023.96 1023.97 1024.01 1024.07 1024.17 1024.32 1024.50 1024.73 1024.99 1025.26 1025.52 1025.74 1025.91 1026.00 1026.01 1025.95 1025.82 1025.66 1025.48 1025.30 1025.15 1025.02 1024.93 1024.86
1023.31 1023.51 1023.72 1023.91 1024.06 1024.17 1024.24 1024.27 1024.27 1024.24 1024.20 1024.16 1024.12 1024.09 1024.07 1024.06 1024.07 1024.11 1024.19 1024.30 1024.46 1024.65 1024.87 1025.11 1025.34 1025.54 1025.69 1025.78 1025.79 1025.74 1025.64 1025.49 1025.33 1025.18 1025.04 1024.94 1024.86 1024.80
1023.17 1023.40 1023.63 1023.83 1024.01 1024.15 1024.24 1024.30 1024.33 1024.34 1024.34 1024.32 1024.31 1024.29 1024.28 1024.28 1024.28 1024.30 1024.35 1024.43 1024.55 1024.69 1024.87 1025.06 1025.25 1025.41 1025.54 1025.61 1025.61 1025.56 1025.46 1025.32 1025.17 1025.03 1024.90 1024.80 1024.73 1024.68
1023.00 1023.24 1023.47 1023.69 1023.88 1024.04 1024.16 1024.25 1024.32 1024.37 1024.42 1024.45 1024.48 1024.50 1024.52 1024.53 1024.54 1024.55 1024.58 1024.63 1024.70 1024.81 1024.93 1025.08 1025.22 1025.34 1025.44 1025.49 1025.48 1025.42 1025.31 1025.17 1025.02 1024.87 1024.74 1024.63 1024.56 1024.50
1022.78 1023.02 1023.25 1023.47 1023.66 1023.82 1023.96 1024.08 1024.19 1024.30 1024.39 1024.48 1024.57 1024.64 1024.69 1024.73 1024.75 1024.77 1024.78 1024.81 1024.85 1024.91 1025.00 1025.10 1025.21 1025.30 1025.37 1025.40 1025.38 1025.31 1025.20 1025.05 1024.89 1024.72 1024.57 1024.45 1024.35 1024.29
1022.51 1022.74 1022.96 1023.15 1023.33 1023.49 1023.64 1023.79 1023.93 1024.08 1024.23 1024.38 1024.52 1024.64 1024.74 1024.81 1024.85 1024.88 1024.89 1024.90 1024.92 1024.96 1025.02 1025.09 1025.17 1025.25 1025.30 1025.33 1025.30 1025.23 1025.11 1024.96 1024.78 1024.60 1024.43 1024.28 1024.15 1024.06
1022.20 1022.41 1022.60 1022.77 1022.92 1023.07 1023.22 1023.38 1023.55 1023.74 1023.93 1024.13 1024.32 1024.49 1024.63 1024.74 1024.81 1024.84 1024.86 1024.87 1024.88 1024.91 1024.95 1025.02 1025.09 1025.17 1025.22 1025.25 1025.23 1025.17 1025.06 1024.90 1024.71 1024.51 1024.31 1024.13 1023.97 1023.83
1021.87 1022.05 1022.20 1022.34 1022.47 1022.60 1022.75 1022.91 1023.10 1023.32 1023.55 1023.79 1024.02 1024.23 1024.41 1024.55 1024.64 1024.70 1024.72 1024.74 1024.75 1024.78 1024.83 1024.89 1024.97 1025.05 1025.12 1025.17 1025.17 1025.12 1025.01 1024.86 1024.67 1024.46 1024.24 1024.02 1023.82 1023.65
1021.55 1021.69 1021.81 1021.92 1022.02 1022.13 1022.27 1022.44 1022.64 1022.88 1023.14 1023.42 1023.68 1023.93 1024.14 1024.30 1024.41 1024.49 1024.53 1024.55 1024.58 1024.61 1024.67 1024.74 1024.83 1024.93 1025.01 1025.08 1025.10 1025.06 1024.98 1024.84 1024.65 1024.43 1024.19 1023.94 1023.71 1023.49
1021.27 1021.38 1021.46 1021.54 1021.62 1021.72 1021.85 1022.03 1022.24 1022.50 1022.78 1023.08 1023.37 1023.64 1023.87 1024.06 1024.19 1024.28 1024.34 1024.37 1024.41 1024.45 1024.51 1024.60 1024.70 1024.81 1024.91 1024.98 1025.02 1025.00 1024.93 1024.80 1024.62 1024.40 1024.15 1023.88 1023.62 1023.37
1021.06 1021.13 1021.19 1021.25 1021.32 1021.41 1021.55 1021.72 1021.95 1022.22 1022.52 1022.83 1023.14 1023.43 1023.67 1023.87 1024.02 1024.12 1024.19 1024.24 1024.28 1024.33 1024.40 1024.48 1024.59 1024.70 1024.80 1024.88 1024.93 1024.92 1024.86 1024.74 1024.56 1024.34 1024.09 1023.82 1023.54 1023.26
Thickness
5740 5739 5738 5736 5734 5732 5728 5723 5714 5706 5703 5704 5704 5704 5703 5702 5701 5700 5698 5695 5693 5691 5689 5686 5684 5681 5679 5676 5674 5673 5671 5670 5668 5667 5666 5664 5664 5663
5736 5736 5735 5734 5732 5729 5727 5723 5719 5711 5703 5702 5701 5700 5698 5697 5694 5693 5690 5688 5686 5684 5681 5679 5676 5674 5671 5669 5667 5665 5663 5661 5659 5657 5655 5654 5653 5653
5733 5732 5730 5730 5728 5726 5723 5720 5716 5712 5703 5699 5698 5695 5693 5690 5687 5685 5683 5681 5678 5676 5674 5671 5668 5666 5663 5661 5658 5656 5654 5651 5649 5647 5645 5644 5643 5641
5727 5726 5725 5725 5723 5721 5718 5715 5712 5709 5703 5695 5691 5689 5687 5684 5681 5678 5675 5673 5670 5668 5665 5663 5660 5657 5655 5652 5649 5647 5644 5641 5639 5637 5635 5634 5632 5631
5721 5720 5719 5719 5717 5715 5713 5710 5707 5704 5699 5693 5687 5684 5680 5678 5674 5671 5667 5664 5662 5659 5656 5653 5651 5648 5646 5643 5640 5637 5634 5631 5629 5627 5625 5623 5621 5619
5716 5715 5714 5713 5711 5709 5707 5703 5700 5696 5692 5687 5682 5677 5674 5671 5667 5662 5658 5655 5653 5650 5647 5644 5641 5639 5636 5633 5630 5627 5624 5621 5619 5616 5614 5612 5610 5608
5709 5708 5707 5707 5705 5704 5701 5697 5694 5689 5685 5680 5675 5670 5666 5663 5659 5656 5651 5647 5644 5641 5637 5635 5632 5629 5627 5623 5620 5617 5614 5611 5609 5606 5604 5601 5599 5597
5702 5700 5700 5698 5697 5696 5694 5691 5688 5683 5678 5673 5667 5662 5658 5656 5653 5650 5644 5639 5634 5632 5629 5625 5622 5619 5617 5614 5611 5608 5605 5602 5599 5596 5593 5590 5588 5585
5695 5693 5692 5690 5689 5687 5684 5682 5679 5675 5672 5667 5660 5655 5652 5649 5646 5642 5637 5632 5628 5625 5621 5615 5612 5609 5607 5604 5601 5598 5595 5591 5588 5585 5582 5579 5577 5574
5688 5686 5684 5682 5680 5678 5675 5672 5668 5665 5663 5659 5655 5651 5648 5644 5640 5636 5630 5625 5622 5618 5614 5607 5603 5600 5598 5595 5591 5588 5585 5582 5578 5575 5572 5569 5567 5564
5681 5679 5677 5674 5672 5670 5667 5662 5659 5656 5654 5651 5648 5644 5640 5637 5633 5628 5622 5616 5610 5606 5603 5598 5594 5590 5588 5586 5583 5579 5576 5573 5569 5566 5563 5560 5557 5554
5673 5671 5670 5667 5665 5662 5658 5654 5649 5646 5644 5641 5638 5635 5631 5628 5624 5620 5614 5607 5601 5597 5594 5590 5585 5581 5577 5576 5574 5570 5567 5564 5560 5557 5554 5551 5548 5545
5666 5663 5661 5660 5657 5654 5651 5647 5643 5639 5635 5631 5627 5624 5621 5617 5614 5610 5606 5601 5594 5589 5587 5583 5577 5572 5568 5564 5563 5561 5558 5555 5552 5549 5546 5543 5539 5536
5660 5657 5655 5653 5651 5648 5644 5641 5637 5633 5628 5623 5618 5613 5609 5606 5604 5601 5597 5593 5589 5584 5581 5576 5570 5565 5560 5555 5552 5551 5549 5547 5543 5540 5538 5535 5531 5528
5656 5654 5650 5647 5644 5640 5637 5633 5629 5624 5619 5613 5608 5604 5601 5598 5595 5591 5588 5584 5580 5576 5572 5568 5564 5558 5553 5548 5544 5541 5539 5538 5535 5532 5529 5526 5523 5521
5650 5648 5644 5640 5637 5633 5629 5625 5621 5616 5611 5606 5601 5597 5594 5590 5586 5582 5577 5573 5568 5565 5563 5559 5555 5551 5545 5541 5537 5533 5531 5528 5527 5525 5521 5519 5516 5514
5643 5639 5635 5631 5627 5624 5620 5617 5613 5608 5603 5599 5594 5589 5585 5581 5577 5573 5568 5563 5558 5554 5551 5550 5546 5543 5539 5534 5530 5526 5523 5521 5519 5517 5513 5510 5510 5508
5637 5631 5627 5623 5620 5616 5612 5608 5604 5600 5596 5591 5586 5582 5577 5573 5568 5564 5559 5554 5549 5545 5542 5539 5536 5532 5529 5526 5523 5519 5516 5514 5512 5510 5507 5503 5502 5502
5630 5625 5621 5617 5613 5609 5605 5601 5597 5593 5588 5584 5579 5574 5569 5565 5560 5555 5551 5546 5541 5537 5534 5530 5526 5521 5516 5513 5514 5514 5510 5508 5505 5502 5500 5496 5495 5496
5623 5619 5615 5611 5607 5603 5599 5595 5590 5585 5581 5576 5571 5567 5562 5557 5552 5547 5542 5538 5533 5529 5525 5522 5518 5514 5509 5506 5505 5505 5505 5502 5498 5495 5493 5491 5490 5490
5617 5613 5610 5606 5602 5598 5593 5588 5583 5578 5573 5568 5564 5559 5555 5549 5544 5540 5535 5531 5526 5521 5517 5514 5513 5510 5506 5501 5498 5497 5498 5497 5494 5491 5488 5484 5482 5480
5611 5608 5604 5600 5596 5591 5586 5581 5576 5571 5565 5561 5556 5551 5547 5542 5537 5532 5527 5523 5519 5515 5512 5508 5506 5503 5499 5494 5491 5489 5489 5490 5489 5487 5484 5481 5476 5474
5605 5601 5598 5594 5589 5584 5579 5574 5569 5563 5558 5553 5549 5544 5539 5534 5529 5525 5520 5516 5512 5508 5504 5501 5498 5495 5491 5488 5485 5482 5482 5481 5479 5477 5477 5476 5475 5473